Regional Weather Roundup
Issued by NWS Albany, NY

Home | Current Version | Previous Version | Graphics & Text | Print | Product List | Glossary Off
Versions: 1 2 3 4 5 6 7 8 9 10 11 12 13 14 15 16 17 18 19 20 21 22 23 24 25 26 27 28 29 30 31 32 33 34 35 36 37 38 39 40 41 42 43 44 45 46 47 48 49 50

000
ASUS41 KALY 031410
RWRALY

NEW YORK STATE HOURLY WEATHER ROUNDUP
NATIONAL WEATHER SERVICE ALBANY NY
900 AM EST SAT DEC 03 2016

NOTE: "FAIR" INDICATES FEW OR NO CLOUDS BELOW 12,000 FEET WITH NO
SIGNIFICANT WEATHER AND/OR NO OBSTRUCTIONS TO VISIBILITY.

NYZ032-033-038>043-046>054-057>066-NYZ062>081-082-084-031500-
EAST


CITY           SKY/WX    TMP DP  RH WIND       PRES   REMARKS
ALBANY         CLOUDY    38  27  64 W16G22    29.99R WCI  29
GLENS FALLS    CLOUDY    40  25  55 NW3       29.95R
POUGHKEEPSIE   PTSUNNY   42  27  55 NW6       29.98S
NEWBURGH       PTSUNNY   39  28  65 NW14G23   30.00R WCI  31
MONTGOMERY     MOSUNNY   42  27  55 NW8G26    29.98R
WHITE PLAINS   PTSUNNY   41  27  57 NW18G26   29.98R
ISLIP          MOSUNNY   44  28  53 NW16G35   29.97R
NEW YORK CITY  PTSUNNY   44  28  53 NW29G37   30.01S
CENTRAL PARK   CLOUDY    43  26  51 VRB5      30.05R
$$

NYZ005>009-017-018-044>046-055-056-031500-
CENTRAL


CITY           SKY/WX    TMP DP  RH WIND       PRES   REMARKS
FULTON         CLOUDY    36  26  67 NW15      30.09R WCI  27
SYRACUSE       CLOUDY    35  27  72 NW16      30.09R WCI  25
ROME           CLOUDY    34  33  96 W10       30.06R WCI  26
ELMIRA         CLOUDY    38  28  67 W10       30.09S WCI  31
BINGHAMTON     CLOUDY    32  25  75 NW15G24   30.03R WCI  22
MONTICELLO     CLOUDY    34  25  69 NW20G29   30.01R WCI  22
$$

NYZ026>034-041>043-087-031500-
NORTH


CITY           SKY/WX    TMP DP  RH WIND       PRES   REMARKS
WATERTOWN      CLOUDY    36  25  64 NW12      30.07R WCI  28
FORT DRUM      NOT AVBL
OGDENSBURG     CLOUDY    35  28  77 NW12G18   30.03R WCI  26
MASSENA        CLOUDY    35  27  72 W12       30.01R WCI  27
SARANAC LAKE   LGT SNOW  29  25  85 VRB7      29.90R VSB 1   WCI  22
PLATTSBURGH    CLOUDY    37  27  67 NW8       29.93R WCI  31
$$

NYZ001>004-010>016-019>021-085-031500-
WEST


CITY           SKY/WX    TMP DP  RH WIND       PRES   REMARKS
NIAGARA FALLS  MOSUNNY   38  31  76 W8        30.16S WCI  32
BUFFALO        MOSUNNY   38  31  76 W12       30.16R WCI  30
DUNKIRK        PTSUNNY   40  33  76 NW13      30.19S WCI  32
JAMESTOWN      CLOUDY    36  30  80 NW10      30.15R WCI  28
WELLSVILLE     CLOUDY    35  29  78 NW13G25   30.10R WCI  26
ROCHESTER      LGT RAIN  36  33  89 NW8       30.14R WCI  30
PENN YAN       CLOUDY    36  30  79 VRB7      30.11R WCI  30
$$

             KEY
       WCI = WIND CHILL INDEX
       VSB = VISIBILITY
       HX  = HEAT INDEX
$$



USA.gov is the U.S. government's official web portal to all federal, state and local government web resources and services.